Home   Weather   Chelyabinsk   Past weeks
Flag for Russia

Past Weather in Chelyabinsk, Russia — Yesterday and Last 2 Weeks

Now
25 °F

Partly sunny.


Feels Like: 16 °F
Forecast: 33 / 23 °F
Wind: 8 mph from South

Location: Chelyabinsk-Balandino

Current Time: Oct 20, 2019 at 10:05:06 am

Latest Report: Oct 20, 2019 at 9:00 am


Visibility: N/A

Pressure: 30.57 "Hg

Humidity: 69%

Dew Point: 16 °F

Location of ChelyabinskLocation

Past Weather in Chelyabinsk — Graph

°F

Chelyabinsk Temperature Yesterday

Maximum temperature yesterday: 32 °F (at 12:00 am)
Minimum temperature yesterday: 23 °F (at 7:00 pm)
Average temperature yesterday: 27 °F

High & Low Weather Summary for the Past Weeks

 TemperatureHumidityPressure
High72 °F (Oct 5, 1:30 pm)100% (Oct 8, 4:00 am)30.57 "Hg (Oct 8, 4:00 am)
Low23 °F (Oct 19, 7:00 pm)13% (Oct 6, 3:00 pm)29.62 "Hg (Oct 15, 8:30 pm)
Average43 °F70%30.07 "Hg
* Reported Oct 5 9:00 am — Oct 20 9:00 am, Chelyabinsk. Weather by CustomWeather, © 2019

Note: Actual official high and low records may vary slightly from our data, if they occured in-between our weather recording intervals... More about our weather records

Advertising

Chelyabinsk Weather History for the Previous 24 Hours

Scroll right to see more
 ConditionsComfort  
Time TempWeatherWind HumidityBarometerVisibility
9:00 am
Sun, Oct 20
25 °FPartly sunny.8 mph69%30.57 "HgN/A
8:30 am23 °FPassing clouds.6 mph74%30.57 "HgN/A
8:00 am23 °FPassing clouds.6 mph68%30.57 "HgN/A
7:30 am23 °FPassing clouds.3 mph74%30.54 "HgN/A
7:00 am23 °FPassing clouds.6 mph74%30.54 "HgN/A
6:30 am25 °FPassing clouds.3 mph69%30.54 "HgN/A
6:00 am25 °FPassing clouds.3 mph69%30.54 "HgN/A
5:30 am23 °FPassing clouds.3 mph74%30.54 "HgN/A
5:00 am25 °FPassing clouds.3 mph69%30.54 "HgN/A
4:30 am23 °FPassing clouds.3 mph80%30.54 "HgN/A
4:00 am25 °FPassing clouds.6 mph69%30.54 "HgN/A
3:30 am25 °FPassing clouds.3 mph74%30.54 "HgN/A
3:00 am25 °FPassing clouds.6 mph74%30.54 "HgN/A
2:30 am25 °FPassing clouds.6 mph74%30.54 "HgN/A
2:00 am25 °FPassing clouds.6 mph69%30.51 "HgN/A
1:30 am25 °FPassing clouds.3 mph74%30.51 "HgN/A
1:00 am25 °FPassing clouds.6 mph74%30.51 "HgN/A
12:30 am25 °FPassing clouds.6 mph74%30.51 "HgN/A
12:00 am25 °FPassing clouds.6 mph74%30.51 "HgN/A
11:30 pm
Sat, Oct 19
25 °FPassing clouds.6 mph74%30.51 "HgN/A
11:00 pm25 °FPassing clouds.6 mph69%30.48 "HgN/A
10:30 pm25 °FPassing clouds.8 mph74%30.48 "HgN/A
10:00 pm25 °FPassing clouds.6 mph74%30.48 "HgN/A
9:30 pm25 °FPassing clouds.3 mph74%30.48 "HgN/A
9:00 pm25 °FPassing clouds.3 mph74%30.48 "HgN/A
8:30 pm25 °FPassing clouds.1 mph74%30.45 "HgN/A
8:00 pm25 °FPassing clouds.1 mph74%30.45 "HgN/A
7:30 pm23 °FPassing clouds.1 mph80%30.45 "HgN/A
7:00 pm23 °FPassing clouds.1 mph80%30.45 "HgN/A
6:30 pm25 °FScattered clouds.1 mph74%30.42 "HgN/A
6:00 pm27 °FPartly sunny.3 mph74%30.42 "HgN/A
5:30 pm28 °FPartly sunny.6 mph64%30.39 "HgN/A
5:00 pm28 °FScattered clouds.3 mph69%30.39 "HgN/A
4:30 pm27 °FPartly sunny.3 mph74%30.39 "HgN/A
4:00 pm28 °FPartly sunny.8 mph69%30.36 "HgN/A
3:30 pm28 °FPartly sunny.6 mph74%30.36 "HgN/A
3:00 pm27 °FPartly sunny.6 mph74%30.36 "HgN/A
2:30 pm27 °FPartly sunny.6 mph74%30.36 "HgN/A
2:00 pm27 °FPartly sunny.6 mph74%30.36 "HgN/A
1:30 pm25 °FPartly sunny.8 mph80%30.36 "HgN/A
1:00 pm25 °FPartly sunny.8 mph80%30.33 "HgN/A
12:30 pm25 °FPartly sunny.10 mph80%30.33 "HgN/A
12:00 pm25 °FPartly sunny.8 mph86%30.33 "HgN/A
11:30 am25 °FPartly sunny.8 mph80%30.33 "HgN/A
11:00 am25 °FPartly sunny.10 mph80%30.30 "HgN/A
10:30 am25 °FPartly sunny.10 mph86%30.30 "HgN/A
10:00 am25 °FLight snow. Partly sunny.15 mph80%30.30 "HgN/A
Weather by CustomWeather, © 2019

See weather overview